Data supplied by UK-AIR on 18/5/2021
All Data GMT hour ending  NB:  Upto 06/02/2020 PM10 were measured with a BAM unheated, from 07/02/2020 PM10 were measured with a BAM 1020 heated
Status: R =Ratified P=Provisional,P*=As supplied
,,Reading London Road,,,,,,,,,,,,,,,,,,,,,,,
Date,time,"PM<sub>10</sub> particulate matter (Hourly measured)",status,unit,"Nitric oxide",status,unit,"Nitrogen dioxide",status,unit,"Nitrogen oxides as nitrogen dioxide",status,unit
 
01-01-2020,01:00,40.390,R,ugm-3 (Ref.eq),4.86036,R,ugm-3,26.46240,R,ugm-3,33.91485,R,ugm-3
01-01-2020,02:00,43.440,R,ugm-3 (Ref.eq),10.93581,R,ugm-3,31.71465,R,ugm-3,48.48266,R,ugm-3
01-01-2020,03:00,47.098,R,ugm-3 (Ref.eq),15.09692,R,ugm-3,34.09629,R,ugm-3,57.24459,R,ugm-3
01-01-2020,04:00,46.290,R,ugm-3 (Ref.eq),7.77199,R,ugm-3,29.98105,R,ugm-3,41.89794,R,ugm-3
01-01-2020,05:00,45.473,R,ugm-3 (Ref.eq),10.62631,R,ugm-3,33.62298,R,ugm-3,49.91643,R,ugm-3
01-01-2020,06:00,47.715,R,ugm-3 (Ref.eq),14.16841,R,ugm-3,33.55520,R,ugm-3,55.27979,R,ugm-3
01-01-2020,07:00,44.457,R,ugm-3 (Ref.eq),9.14757,R,ugm-3,32.70420,R,ugm-3,46.73027,R,ugm-3
01-01-2020,08:00,38.757,R,ugm-3 (Ref.eq),12.27700,R,ugm-3,32.84435,R,ugm-3,51.66881,R,ugm-3
01-01-2020,09:00,34.490,R,ugm-3 (Ref.eq),21.45895,R,ugm-3,33.20945,R,ugm-3,66.11272,R,ugm-3
01-01-2020,10:00,30.824,R,ugm-3 (Ref.eq),20.90872,R,ugm-3,31.29179,R,ugm-3,63.35138,R,ugm-3
01-01-2020,11:00,37.740,R,ugm-3 (Ref.eq),20.56483,R,ugm-3,30.11980,R,ugm-3,61.65210,R,ugm-3
01-01-2020,12:00,32.249,R,ugm-3 (Ref.eq),15.57837,R,ugm-3,26.61405,R,ugm-3,50.50056,R,ugm-3
01-01-2020,13:00,20.041,R,ugm-3 (Ref.eq),9.69780,R,ugm-3,18.58488,R,ugm-3,33.45463,R,ugm-3
01-01-2020,14:00,18.416,R,ugm-3 (Ref.eq),5.70863,R,ugm-3,18.06369,R,ugm-3,26.81680,R,ugm-3
01-01-2020,15:00,16.991,R,ugm-3 (Ref.eq),8.52856,R,ugm-3,20.27148,R,ugm-3,33.34842,R,ugm-3
01-01-2020,16:00,17.808,R,ugm-3 (Ref.eq),1.13485,R,ugm-3,12.49142,R,ugm-3,14.23149,R,ugm-3
01-01-2020,17:00,40.182,R,ugm-3 (Ref.eq),2.30409,R,ugm-3,17.12402,R,ugm-3,20.65691,R,ugm-3
01-01-2020,18:00,21.874,R,ugm-3 (Ref.eq),0.99729,R,ugm-3,20.93323,R,ugm-3,22.46239,R,ugm-3
01-01-2020,19:00,17.399,R,ugm-3 (Ref.eq),1.16924,R,ugm-3,22.05025,R,ugm-3,23.84306,R,ugm-3
01-01-2020,20:00,20.658,R,ugm-3 (Ref.eq),1.10046,R,ugm-3,19.97851,R,ugm-3,21.66585,R,ugm-3
01-01-2020,21:00,27.166,R,ugm-3 (Ref.eq),1.44435,R,ugm-3,21.15049,R,ugm-3,23.36514,R,ugm-3
01-01-2020,22:00,31.840,R,ugm-3 (Ref.eq),0.79096,R,ugm-3,16.31107,R,ugm-3,17.52385,R,ugm-3
01-01-2020,23:00,27.574,R,ugm-3 (Ref.eq),0.92851,R,ugm-3,10.94920,R,ugm-3,12.37290,R,ugm-3
01-01-2020,24:00,29.399,R,ugm-3 (Ref.eq),0.89412,R,ugm-3,8.08129,R,ugm-3,9.45226,R,ugm-3
02-01-2020,01:00,18.216,R,ugm-3 (Ref.eq),0.64271,R,ugm-3,6.73881,R,ugm-3,7.72428,R,ugm-3
02-01-2020,02:00,19.433,R,ugm-3 (Ref.eq),1.10179,R,ugm-3,6.10576,R,ugm-3,7.79515,R,ugm-3
02-01-2020,03:00,13.533,R,ugm-3 (Ref.eq),0.79191,R,ugm-3,5.05730,R,ugm-3,6.27155,R,ugm-3
02-01-2020,04:00,13.333,R,ugm-3 (Ref.eq),0.92964,R,ugm-3,5.21817,R,ugm-3,6.64359,R,ugm-3
02-01-2020,05:00,10.275,R,ugm-3 (Ref.eq),0.72305,R,ugm-3,4.04677,R,ugm-3,5.15543,R,ugm-3
02-01-2020,06:00,9.875,R,ugm-3 (Ref.eq),0.65419,R,ugm-3,4.31180,R,ugm-3,5.31487,R,ugm-3
02-01-2020,07:00,10.483,R,ugm-3 (Ref.eq),0.99850,R,ugm-3,5.16574,R,ugm-3,6.69674,R,ugm-3
02-01-2020,08:00,7.025,R,ugm-3 (Ref.eq),0.72305,R,ugm-3,11.32815,R,ugm-3,12.43681,R,ugm-3
02-01-2020,09:00,3.358,R,ugm-3 (Ref.eq),1.03293,R,ugm-3,12.66006,R,ugm-3,14.24386,R,ugm-3
02-01-2020,10:00,2.950,R,ugm-3 (Ref.eq),0.99850,R,ugm-3,10.16172,R,ugm-3,11.69273,R,ugm-3
02-01-2020,11:00,4.991,R,ugm-3 (Ref.eq),1.06736,R,ugm-3,10.74706,R,ugm-3,12.38366,R,ugm-3
02-01-2020,12:00,10.275,R,ugm-3 (Ref.eq),1.03293,R,ugm-3,9.31169,R,ugm-3,10.89549,R,ugm-3
02-01-2020,13:00,12.108,R,ugm-3 (Ref.eq),0.96407,R,ugm-3,9.20468,R,ugm-3,10.68290,R,ugm-3
02-01-2020,14:00,16.383,R,ugm-3 (Ref.eq),0.86077,R,ugm-3,9.36307,R,ugm-3,10.68290,R,ugm-3
02-01-2020,15:00,9.058,R,ugm-3 (Ref.eq),0.82634,R,ugm-3,8.83122,R,ugm-3,10.09826,R,ugm-3
02-01-2020,16:00,15.566,R,ugm-3 (Ref.eq),1.06736,R,ugm-3,7.77073,R,ugm-3,9.40733,R,ugm-3
02-01-2020,17:00,8.650,R,ugm-3 (Ref.eq),0.96407,R,ugm-3,9.15153,R,ugm-3,10.62975,R,ugm-3
02-01-2020,18:00,9.258,R,ugm-3 (Ref.eq),0.89521,R,ugm-3,8.24730,R,ugm-3,9.61992,R,ugm-3
02-01-2020,19:00,10.891,R,ugm-3 (Ref.eq),1.03293,R,ugm-3,7.82353,R,ugm-3,9.40733,R,ugm-3
02-01-2020,20:00,13.333,R,ugm-3 (Ref.eq),0.89521,R,ugm-3,5.21782,R,ugm-3,6.59044,R,ugm-3
02-01-2020,21:00,12.924,R,ugm-3 (Ref.eq),0.82634,R,ugm-3,4.63247,R,ugm-3,5.89951,R,ugm-3
02-01-2020,22:00,13.533,R,ugm-3 (Ref.eq),0.61976,R,ugm-3,4.68349,R,ugm-3,5.63377,R,ugm-3
02-01-2020,23:00,25.132,R,ugm-3 (Ref.eq),0.55090,R,ugm-3,4.15129,R,ugm-3,4.99598,R,ugm-3
02-01-2020,24:00,19.633,R,ugm-3 (Ref.eq),0.75748,R,ugm-3,4.31287,R,ugm-3,5.47432,R,ugm-3
03-01-2020,01:00,7.225,R,ugm-3 (Ref.eq),0.36771,R,ugm-3,3.05344,R,ugm-3,3.61725,R,ugm-3
03-01-2020,02:00,7.833,R,ugm-3 (Ref.eq),0.55156,R,ugm-3,2.27506,R,ugm-3,3.12077,R,ugm-3
03-01-2020,03:00,4.375,R,ugm-3 (Ref.eq),0.41367,R,ugm-3,2.29144,R,ugm-3,2.92572,R,ugm-3
03-01-2020,04:00,0.508,R,ugm-3 (Ref.eq),1.51679,R,ugm-3,3.25975,R,ugm-3,5.58547,R,ugm-3
03-01-2020,05:00,2.750,R,ugm-3 (Ref.eq),0.93076,R,ugm-3,8.83947,R,ugm-3,10.26662,R,ugm-3
03-01-2020,06:00,2.342,R,ugm-3 (Ref.eq),2.61991,R,ugm-3,15.55858,R,ugm-3,19.57573,R,ugm-3
03-01-2020,07:00,0.108,R,ugm-3 (Ref.eq),2.37860,R,ugm-3,14.43913,R,ugm-3,18.08627,R,ugm-3
03-01-2020,08:00,1.533,R,ugm-3 (Ref.eq),16.68470,R,ugm-3,30.32500,R,ugm-3,55.90785,R,ugm-3
03-01-2020,09:00,5.191,R,ugm-3 (Ref.eq),28.95692,R,ugm-3,41.88215,R,ugm-3,86.28214,R,ugm-3
03-01-2020,10:00,9.875,R,ugm-3 (Ref.eq),7.82526,R,ugm-3,14.91806,R,ugm-3,26.91662,R,ugm-3
03-01-2020,11:00,14.349,R,ugm-3 (Ref.eq),9.72125,R,ugm-3,18.28791,R,ugm-3,33.19362,R,ugm-3
03-01-2020,12:00,7.225,R,ugm-3 (Ref.eq),9.61783,R,ugm-3,16.95702,R,ugm-3,31.70417,R,ugm-3
03-01-2020,13:00,12.924,R,ugm-3 (Ref.eq),12.06538,R,ugm-3,20.70465,R,ugm-3,39.20465,R,ugm-3
03-01-2020,14:00,12.924,R,ugm-3 (Ref.eq),12.47905,R,ugm-3,18.68730,R,ugm-3,37.82158,R,ugm-3
03-01-2020,15:00,15.974,R,ugm-3 (Ref.eq),9.65231,R,ugm-3,18.55321,R,ugm-3,33.35321,R,ugm-3
03-01-2020,16:00,19.233,R,ugm-3 (Ref.eq),8.89391,R,ugm-3,21.63108,R,ugm-3,35.26822,R,ugm-3
03-01-2020,17:00,28.999,R,ugm-3 (Ref.eq),26.19912,R,ugm-3,42.49347,R,ugm-3,82.66488,R,ugm-3
03-01-2020,18:00,20.858,R,ugm-3 (Ref.eq),30.12898,R,ugm-3,50.83038,R,ugm-3,97.02751,R,ugm-3
03-01-2020,19:00,25.532,R,ugm-3 (Ref.eq),46.43449,R,ugm-3,71.84255,R,ugm-3,143.04110,R,ugm-3
03-01-2020,20:00,21.674,R,ugm-3 (Ref.eq),28.71561,R,ugm-3,61.24273,R,ugm-3,105.27272,R,ugm-3
03-01-2020,21:00,20.249,R,ugm-3 (Ref.eq),22.99317,R,ugm-3,56.02675,R,ugm-3,91.28246,R,ugm-3
03-01-2020,22:00,23.299,R,ugm-3 (Ref.eq),17.58099,R,ugm-3,50.38826,R,ugm-3,77.34539,R,ugm-3
03-01-2020,23:00,26.957,R,ugm-3 (Ref.eq),13.92690,R,ugm-3,40.03264,R,ugm-3,61.38692,R,ugm-3
03-01-2020,24:00,19.841,R,ugm-3 (Ref.eq),7.03240,R,ugm-3,30.70917,R,ugm-3,41.49203,R,ugm-3
04-01-2020,01:00,15.774,R,ugm-3 (Ref.eq),3.40539,R,ugm-3,20.54715,R,ugm-3,25.76868,R,ugm-3
04-01-2020,02:00,14.141,R,ugm-3 (Ref.eq),2.62307,R,ugm-3,16.26286,R,ugm-3,20.28485,R,ugm-3
04-01-2020,03:00,17.399,R,ugm-3 (Ref.eq),3.69301,R,ugm-3,18.34919,R,ugm-3,24.01172,R,ugm-3
04-01-2020,04:00,17.599,R,ugm-3 (Ref.eq),5.72934,R,ugm-3,13.62962,R,ugm-3,22.41449,R,ugm-3
04-01-2020,05:00,17.808,R,ugm-3 (Ref.eq),5.41872,R,ugm-3,13.25405,R,ugm-3,21.56263,R,ugm-3
04-01-2020,06:00,22.891,R,ugm-3 (Ref.eq),6.35060,R,ugm-3,16.67013,R,ugm-3,26.40757,R,ugm-3
04-01-2020,07:00,16.991,R,ugm-3 (Ref.eq),3.41690,R,ugm-3,15.04568,R,ugm-3,20.28485,R,ugm-3
04-01-2020,08:00,16.991,R,ugm-3 (Ref.eq),1.34605,R,ugm-3,14.17461,R,ugm-3,16.23853,R,ugm-3
04-01-2020,09:00,14.749,R,ugm-3 (Ref.eq),3.14078,R,ugm-3,12.86023,R,ugm-3,17.67604,R,ugm-3
04-01-2020,10:00,10.075,R,ugm-3 (Ref.eq),2.55404,R,ugm-3,16.10250,R,ugm-3,20.01864,R,ugm-3
04-01-2020,11:00,14.141,R,ugm-3 (Ref.eq),2.00182,R,ugm-3,15.19228,R,ugm-3,18.26169,R,ugm-3
04-01-2020,12:00,17.599,R,ugm-3 (Ref.eq),9.28430,R,ugm-3,25.64184,R,ugm-3,39.87756,R,ugm-3
04-01-2020,13:00,18.008,R,ugm-3 (Ref.eq),24.67759,R,ugm-3,36.64581,R,ugm-3,74.48425,R,ugm-3
04-01-2020,14:00,10.891,R,ugm-3 (Ref.eq),28.02546,R,ugm-3,40.93615,R,ugm-3,83.90792,R,ugm-3
04-01-2020,15:00,9.666,R,ugm-3 (Ref.eq),20.32881,R,ugm-3,42.94116,R,ugm-3,74.11157,R,ugm-3
04-01-2020,16:00,14.958,R,ugm-3 (Ref.eq),28.40511,R,ugm-3,51.96058,R,ugm-3,95.51448,R,ugm-3
04-01-2020,17:00,11.700,R,ugm-3 (Ref.eq),22.88286,R,ugm-3,59.84227,R,ugm-3,94.92882,R,ugm-3
04-01-2020,18:00,15.974,R,ugm-3 (Ref.eq),34.85925,R,ugm-3,66.07609,R,ugm-3,119.52620,R,ugm-3
04-01-2020,19:00,20.041,R,ugm-3 (Ref.eq),27.40420,R,ugm-3,57.59484,R,ugm-3,99.61404,R,ugm-3
04-01-2020,20:00,20.858,R,ugm-3 (Ref.eq),12.39057,R,ugm-3,47.33977,R,ugm-3,66.33837,R,ugm-3
04-01-2020,21:00,23.499,R,ugm-3 (Ref.eq),3.69301,R,ugm-3,35.49281,R,ugm-3,41.15535,R,ugm-3
04-01-2020,22:00,30.415,R,ugm-3 (Ref.eq),2.62307,R,ugm-3,35.80233,R,ugm-3,39.82432,R,ugm-3
04-01-2020,23:00,19.841,R,ugm-3 (Ref.eq),1.69119,R,ugm-3,22.27045,R,ugm-3,24.86358,R,ugm-3
04-01-2020,24:00,9.058,R,ugm-3 (Ref.eq),2.13988,R,ugm-3,17.11023,R,ugm-3,20.39133,R,ugm-3
05-01-2020,01:00,8.450,R,ugm-3 (Ref.eq),10.45886,R,ugm-3,23.53796,R,ugm-3,39.57465,R,ugm-3
05-01-2020,02:00,7.433,R,ugm-3 (Ref.eq),2.59168,R,ugm-3,7.64277,R,ugm-3,11.61662,R,ugm-3
05-01-2020,03:00,7.433,R,ugm-3 (Ref.eq),0.86389,R,ugm-3,4.64355,R,ugm-3,5.96817,R,ugm-3
05-01-2020,04:00,7.433,R,ugm-3 (Ref.eq),0.65656,R,ugm-3,3.84243,R,ugm-3,4.84914,R,ugm-3
05-01-2020,05:00,7.633,R,ugm-3 (Ref.eq),0.72567,R,ugm-3,3.41674,R,ugm-3,4.52941,R,ugm-3
05-01-2020,06:00,2.750,R,ugm-3 (Ref.eq),0.41467,R,ugm-3,4.00017,R,ugm-3,4.63599,R,ugm-3
05-01-2020,07:00,-0.908,R,ugm-3 (Ref.eq),0.96756,R,ugm-3,5.97664,R,ugm-3,7.46021,R,ugm-3
05-01-2020,08:00,1.325,R,ugm-3 (Ref.eq),0.93300,R,ugm-3,9.12029,R,ugm-3,10.55087,R,ugm-3
05-01-2020,09:00,3.567,R,ugm-3 (Ref.eq),1.07123,R,ugm-3,11.25299,R,ugm-3,12.89551,R,ugm-3
05-01-2020,10:00,4.991,R,ugm-3 (Ref.eq),2.34979,R,ugm-3,12.86280,R,ugm-3,16.46575,R,ugm-3
05-01-2020,11:00,5.191,R,ugm-3 (Ref.eq),3.11001,R,ugm-3,11.00440,R,ugm-3,15.77302,R,ugm-3
05-01-2020,12:00,7.025,R,ugm-3 (Ref.eq),9.33004,R,ugm-3,21.39658,R,ugm-3,35.70244,R,ugm-3
05-01-2020,13:00,6.008,R,ugm-3 (Ref.eq),5.04513,R,ugm-3,14.16529,R,ugm-3,21.90105,R,ugm-3
05-01-2020,14:00,3.358,R,ugm-3 (Ref.eq),8.53526,R,ugm-3,21.06990,R,ugm-3,34.15711,R,ugm-3
05-01-2020,15:00,6.008,R,ugm-3 (Ref.eq),8.32792,R,ugm-3,19.84248,R,ugm-3,32.61178,R,ugm-3
05-01-2020,16:00,3.975,R,ugm-3 (Ref.eq),5.28702,R,ugm-3,18.90997,R,ugm-3,27.01663,R,ugm-3
05-01-2020,17:00,0.917,R,ugm-3 (Ref.eq),1.03667,R,ugm-3,11.89213,R,ugm-3,13.48167,R,ugm-3
05-01-2020,18:00,6.008,R,ugm-3 (Ref.eq),0.44922,R,ugm-3,11.35411,R,ugm-3,12.04291,R,ugm-3
05-01-2020,19:00,7.833,R,ugm-3 (Ref.eq),0.82934,R,ugm-3,10.02526,R,ugm-3,11.29689,R,ugm-3
05-01-2020,20:00,7.225,R,ugm-3 (Ref.eq),0.82934,R,ugm-3,12.05018,R,ugm-3,13.32181,R,ugm-3
05-01-2020,21:00,7.225,R,ugm-3 (Ref.eq),0.96756,R,ugm-3,13.65000,R,ugm-3,15.13357,R,ugm-3
05-01-2020,22:00,14.141,R,ugm-3 (Ref.eq),0.48378,R,ugm-3,13.85892,R,ugm-3,14.60070,R,ugm-3
05-01-2020,23:00,10.891,R,ugm-3 (Ref.eq),0.93300,R,ugm-3,11.78465,R,ugm-3,13.21523,R,ugm-3
05-01-2020,24:00,17.599,R,ugm-3 (Ref.eq),0.65656,R,ugm-3,9.11787,R,ugm-3,10.12457,R,ugm-3
06-01-2020,01:00,13.333,R,ugm-3 (Ref.eq),0.55356,R,ugm-3,8.53790,R,ugm-3,9.38668,R,ugm-3
06-01-2020,02:00,8.850,R,ugm-3 (Ref.eq),1.28010,R,ugm-3,2.73055,R,ugm-3,4.69334,R,ugm-3
06-01-2020,03:00,10.483,R,ugm-3 (Ref.eq),0.62275,R,ugm-3,1.92513,R,ugm-3,2.88000,R,ugm-3
06-01-2020,04:00,12.108,R,ugm-3 (Ref.eq),0.79574,R,ugm-3,2.24656,R,ugm-3,3.46667,R,ugm-3
06-01-2020,05:00,11.091,R,ugm-3 (Ref.eq),0.93413,R,ugm-3,2.35436,R,ugm-3,3.78667,R,ugm-3
06-01-2020,06:00,18.616,R,ugm-3 (Ref.eq),0.69195,R,ugm-3,3.68570,R,ugm-3,4.74667,R,ugm-3
06-01-2020,07:00,15.974,R,ugm-3 (Ref.eq),1.07252,R,ugm-3,6.35551,R,ugm-3,8.00001,R,ugm-3
06-01-2020,08:00,15.974,R,ugm-3 (Ref.eq),0.96872,R,ugm-3,9.12799,R,ugm-3,10.61334,R,ugm-3
06-01-2020,09:00,8.850,R,ugm-3 (Ref.eq),1.03792,R,ugm-3,10.19523,R,ugm-3,11.78668,R,ugm-3
06-01-2020,10:00,8.041,R,ugm-3 (Ref.eq),1.38389,R,ugm-3,10.25141,R,ugm-3,12.37335,R,ugm-3
06-01-2020,11:00,6.816,R,ugm-3 (Ref.eq),1.31470,R,ugm-3,7.31750,R,ugm-3,9.33334,R,ugm-3
06-01-2020,12:00,16.991,R,ugm-3 (Ref.eq),1.00332,R,ugm-3,6.19494,R,ugm-3,7.73334,R,ugm-3
06-01-2020,13:00,17.199,R,ugm-3 (Ref.eq),1.52228,R,ugm-3,8.43921,R,ugm-3,10.77335,R,ugm-3
06-01-2020,14:00,14.549,R,ugm-3 (Ref.eq),0.96872,R,ugm-3,7.58132,R,ugm-3,9.06668,R,ugm-3
06-01-2020,15:00,22.282,R,ugm-3 (Ref.eq),1.14171,R,ugm-3,11.10275,R,ugm-3,12.85335,R,ugm-3
06-01-2020,16:00,22.074,R,ugm-3 (Ref.eq),1.24550,R,ugm-3,13.18361,R,ugm-3,15.09335,R,ugm-3
06-01-2020,17:00,17.399,R,ugm-3 (Ref.eq),1.41849,R,ugm-3,17.55837,R,ugm-3,19.73336,R,ugm-3
06-01-2020,18:00,11.700,R,ugm-3 (Ref.eq),1.31470,R,ugm-3,18.94418,R,ugm-3,20.96002,R,ugm-3
06-01-2020,19:00,9.466,R,ugm-3 (Ref.eq),5.63936,R,ugm-3,27.19314,R,ugm-3,35.84004,R,ugm-3
06-01-2020,20:00,18.824,R,ugm-3 (Ref.eq),19.78965,R,ugm-3,44.21638,R,ugm-3,74.56008,R,ugm-3
06-01-2020,21:00,40.590,R,ugm-3 (Ref.eq),12.38583,R,ugm-3,34.39539,R,ugm-3,53.38672,R,ugm-3
06-01-2020,22:00,51.173,R,ugm-3 (Ref.eq),15.84556,R,ugm-3,41.14389,R,ugm-3,65.44007,R,ugm-3
06-01-2020,23:00,54.631,R,ugm-3 (Ref.eq),30.92997,R,ugm-3,46.17480,R,ugm-3,93.60010,R,ugm-3
06-01-2020,24:00,39.982,R,ugm-3 (Ref.eq),11.10573,R,ugm-3,34.43818,R,ugm-3,51.46672,R,ugm-3
07-01-2020,01:00,36.315,R,ugm-3 (Ref.eq),1.75504,R,ugm-3,15.67155,R,ugm-3,18.36257,R,ugm-3
07-01-2020,02:00,29.199,R,ugm-3 (Ref.eq),2.32081,R,ugm-3,9.99989,R,ugm-3,13.55841,R,ugm-3
07-01-2020,03:00,33.474,R,ugm-3 (Ref.eq),4.78017,R,ugm-3,13.59530,R,ugm-3,20.92479,R,ugm-3
07-01-2020,04:00,31.232,R,ugm-3 (Ref.eq),1.03917,R,ugm-3,7.69468,R,ugm-3,9.28804,R,ugm-3
07-01-2020,05:00,34.082,R,ugm-3 (Ref.eq),1.73194,R,ugm-3,7.05947,R,ugm-3,9.71508,R,ugm-3
07-01-2020,06:00,23.299,R,ugm-3 (Ref.eq),3.11750,R,ugm-3,11.18039,R,ugm-3,15.96049,R,ugm-3
07-01-2020,07:00,36.524,R,ugm-3 (Ref.eq),1.45483,R,ugm-3,13.30274,R,ugm-3,15.53345,R,ugm-3
07-01-2020,08:00,52.390,R,ugm-3 (Ref.eq),1.73194,R,ugm-3,19.39015,R,ugm-3,22.04576,R,ugm-3
07-01-2020,09:00,50.356,R,ugm-3 (Ref.eq),1.83586,R,ugm-3,24.03497,R,ugm-3,26.84992,R,ugm-3
07-01-2020,10:00,,,,,,,,,,,,
07-01-2020,11:00,,,,,,,,,,,,
07-01-2020,12:00,,,,3.04822,R,ugm-3,11.55351,R,ugm-3,16.22739,R,ugm-3
07-01-2020,13:00,,,,2.28617,R,ugm-3,11.76115,R,ugm-3,15.26655,R,ugm-3
07-01-2020,14:00,,,,1.93978,R,ugm-3,12.93282,R,ugm-3,15.90711,R,ugm-3
07-01-2020,15:00,,,,1.45483,R,ugm-3,13.24936,R,ugm-3,15.48007,R,ugm-3
07-01-2020,16:00,,,,1.00453,R,ugm-3,13.67292,R,ugm-3,15.21317,R,ugm-3
07-01-2020,17:00,,,,0.65814,R,ugm-3,14.68446,R,ugm-3,15.69359,R,ugm-3
07-01-2020,18:00,,,,0.58886,R,ugm-3,15.27110,R,ugm-3,16.17401,R,ugm-3
07-01-2020,19:00,,,,0.90061,R,ugm-3,9.98893,R,ugm-3,11.36985,R,ugm-3
07-01-2020,20:00,,,,1.00453,R,ugm-3,8.60186,R,ugm-3,10.14212,R,ugm-3
07-01-2020,21:00,,,,1.00453,R,ugm-3,6.68020,R,ugm-3,8.22045,R,ugm-3
07-01-2020,22:00,,,,0.69278,R,ugm-3,5.39668,R,ugm-3,6.45893,R,ugm-3
07-01-2020,23:00,,,,1.21236,R,ugm-3,4.86690,R,ugm-3,6.72583,R,ugm-3
07-01-2020,24:00,,,,0.69278,R,ugm-3,4.32909,R,ugm-3,5.39134,R,ugm-3
08-01-2020,01:00,,,,0.41569,R,ugm-3,2.85066,R,ugm-3,3.48804,R,ugm-3
08-01-2020,02:00,,,,1.59348,R,ugm-3,2.94893,R,ugm-3,5.39223,R,ugm-3
08-01-2020,03:00,,,,0.58890,R,ugm-3,2.35373,R,ugm-3,3.25669,R,ugm-3
08-01-2020,04:00,,,,1.10851,R,ugm-3,6.62890,R,ugm-3,8.32859,R,ugm-3
08-01-2020,05:00,,,,2.59807,R,ugm-3,10.05751,R,ugm-3,14.04115,R,ugm-3
08-01-2020,06:00,,,,6.82425,R,ugm-3,14.36190,R,ugm-3,24.82561,R,ugm-3
08-01-2020,07:00,,,,19.22568,R,ugm-3,30.95671,R,ugm-3,60.43567,R,ugm-3
08-01-2020,08:00,,,,7.34386,R,ugm-3,24.02930,R,ugm-3,35.28974,R,ugm-3
08-01-2020,09:00,,,,5.23077,R,ugm-3,27.64305,R,ugm-3,35.66345,R,ugm-3
08-01-2020,10:00,,,,4.64188,R,ugm-3,24.64866,R,ugm-3,31.76610,R,ugm-3
08-01-2020,11:00,,,,8.45237,R,ugm-3,25.58631,R,ugm-3,38.54643,R,ugm-3
08-01-2020,12:00,,,,19.81457,R,ugm-3,31.06813,R,ugm-3,61.45005,R,ugm-3
08-01-2020,13:00,,,,26.01529,R,ugm-3,35.17454,R,ugm-3,75.06410,R,ugm-3
08-01-2020,14:00,,,,25.21855,R,ugm-3,38.31818,R,ugm-3,76.98608,R,ugm-3
08-01-2020,15:00,,,,24.17932,R,ugm-3,42.42089,R,ugm-3,79.49533,R,ugm-3
08-01-2020,16:00,,,,3.84514,R,ugm-3,24.69576,R,ugm-3,30.59155,R,ugm-3
08-01-2020,17:00,,,,5.40398,R,ugm-3,37.25433,R,ugm-3,45.54031,R,ugm-3
08-01-2020,18:00,,,,44.30566,R,ugm-3,63.56123,R,ugm-3,131.49564,R,ugm-3
08-01-2020,19:00,,,,6.23536,R,ugm-3,44.04121,R,ugm-3,53.60196,R,ugm-3
08-01-2020,20:00,,,,16.28121,R,ugm-3,44.81448,R,ugm-3,69.77864,R,ugm-3
08-01-2020,21:00,,,,8.69486,R,ugm-3,42.67251,R,ugm-3,56.00443,R,ugm-3
08-01-2020,22:00,,,,1.69740,R,ugm-3,31.83287,R,ugm-3,34.43552,R,ugm-3
08-01-2020,23:00,,,,0.76210,R,ugm-3,15.00815,R,ugm-3,16.17669,R,ugm-3
08-01-2020,24:00,,,,0.55425,R,ugm-3,7.05164,R,ugm-3,7.90148,R,ugm-3
09-01-2020,01:00,,,,0.32333,R,ugm-3,5.27113,R,ugm-3,5.76690,R,ugm-3
09-01-2020,02:00,,,,1.21250,R,ugm-3,3.26700,R,ugm-3,5.12614,R,ugm-3
09-01-2020,03:00,,,,0.38107,R,ugm-3,2.67293,R,ugm-3,3.25723,R,ugm-3
09-01-2020,04:00,,,,0.38107,R,ugm-3,2.51274,R,ugm-3,3.09704,R,ugm-3
09-01-2020,05:00,,,,0.55429,R,ugm-3,2.62093,R,ugm-3,3.47082,R,ugm-3
09-01-2020,06:00,,,,0.31179,R,ugm-3,2.99276,R,ugm-3,3.47082,R,ugm-3
09-01-2020,07:00,,,,0.55429,R,ugm-3,4.32964,R,ugm-3,5.17953,R,ugm-3
09-01-2020,08:00,,,,0.97000,R,ugm-3,7.32323,R,ugm-3,8.81055,R,ugm-3
09-01-2020,09:00,,,,1.62821,R,ugm-3,9.35763,R,ugm-3,11.85419,R,ugm-3
09-01-2020,10:00,,,,2.77143,R,ugm-3,9.90081,R,ugm-3,14.15027,R,ugm-3
09-01-2020,11:00,,,,1.55893,R,ugm-3,6.26003,R,ugm-3,8.65036,R,ugm-3
09-01-2020,12:00,,,,6.72071,R,ugm-3,16.18009,R,ugm-3,26.48504,R,ugm-3
09-01-2020,13:00,,,,6.16643,R,ugm-3,14.19993,R,ugm-3,23.65498,R,ugm-3
09-01-2020,14:00,,,,1.28179,R,ugm-3,7.75292,R,ugm-3,9.71830,R,ugm-3
09-01-2020,15:00,49.340,R,ugm-3 (Ref.eq),13.58000,R,ugm-3,23.60414,R,ugm-3,44.42651,R,ugm-3
09-01-2020,16:00,25.332,R,ugm-3 (Ref.eq),29.55035,R,ugm-3,56.30507,R,ugm-3,101.61497,R,ugm-3
09-01-2020,17:00,15.366,R,ugm-3 (Ref.eq),26.50178,R,ugm-3,47.25638,R,ugm-3,87.89188,R,ugm-3
09-01-2020,18:00,0.308,R,ugm-3 (Ref.eq),2.42500,R,ugm-3,23.88810,R,ugm-3,27.60638,R,ugm-3
09-01-2020,19:00,22.482,R,ugm-3 (Ref.eq),1.00464,R,ugm-3,10.42056,R,ugm-3,11.96099,R,ugm-3
09-01-2020,20:00,32.657,R,ugm-3 (Ref.eq),0.93536,R,ugm-3,11.38115,R,ugm-3,12.81534,R,ugm-3
09-01-2020,21:00,11.091,R,ugm-3 (Ref.eq),7.93321,R,ugm-3,20.24804,R,ugm-3,32.41213,R,ugm-3
09-01-2020,22:00,10.075,R,ugm-3 (Ref.eq),7.37893,R,ugm-3,21.89889,R,ugm-3,33.21309,R,ugm-3
09-01-2020,23:00,14.958,R,ugm-3 (Ref.eq),7.10178,R,ugm-3,22.69762,R,ugm-3,33.58687,R,ugm-3
09-01-2020,24:00,11.700,R,ugm-3 (Ref.eq),3.32571,R,ugm-3,16.57993,R,ugm-3,21.67929,R,ugm-3
10-01-2020,01:00,19.633,R,ugm-3 (Ref.eq),2.26346,R,ugm-3,12.97849,R,ugm-3,16.44908,R,ugm-3
10-01-2020,02:00,22.691,R,ugm-3 (Ref.eq),2.72539,R,ugm-3,13.55195,R,ugm-3,17.73083,R,ugm-3
10-01-2020,03:00,17.808,R,ugm-3 (Ref.eq),1.83618,R,ugm-3,12.45872,R,ugm-3,15.27415,R,ugm-3
10-01-2020,04:00,15.974,R,ugm-3 (Ref.eq),2.07869,R,ugm-3,11.76643,R,ugm-3,14.95371,R,ugm-3
10-01-2020,05:00,8.850,R,ugm-3 (Ref.eq),4.29596,R,ugm-3,16.91164,R,ugm-3,23.49869,R,ugm-3
10-01-2020,06:00,13.941,R,ugm-3 (Ref.eq),4.67705,R,ugm-3,13.44337,R,ugm-3,20.61476,R,ugm-3
10-01-2020,07:00,-1.317,R,ugm-3 (Ref.eq),19.60898,R,ugm-3,32.84571,R,ugm-3,62.91239,R,ugm-3
10-01-2020,08:00,4.783,R,ugm-3 (Ref.eq),46.21622,R,ugm-3,53.41213,R,ugm-3,124.27600,R,ugm-3
10-01-2020,09:00,13.124,R,ugm-3 (Ref.eq),51.96726,R,ugm-3,53.83324,R,ugm-3,133.51526,R,ugm-3
10-01-2020,10:00,14.141,R,ugm-3 (Ref.eq),38.14397,R,ugm-3,51.63678,R,ugm-3,110.12339,R,ugm-3
10-01-2020,11:00,14.349,R,ugm-3 (Ref.eq),25.18680,R,ugm-3,33.85286,R,ugm-3,72.47208,R,ugm-3
10-01-2020,12:00,12.108,R,ugm-3 (Ref.eq),26.46866,R,ugm-3,33.27593,R,ugm-3,73.86064,R,ugm-3
10-01-2020,13:00,9.466,R,ugm-3 (Ref.eq),26.26079,R,ugm-3,34.12872,R,ugm-3,74.39470,R,ugm-3
10-01-2020,14:00,7.025,R,ugm-3 (Ref.eq),25.39467,R,ugm-3,37.16575,R,ugm-3,76.10370,R,ugm-3
10-01-2020,15:00,6.816,R,ugm-3 (Ref.eq),37.58965,R,ugm-3,57.02624,R,ugm-3,114.66291,R,ugm-3
10-01-2020,16:00,7.025,R,ugm-3 (Ref.eq),10.60132,R,ugm-3,36.40329,R,ugm-3,52.65842,R,ugm-3
10-01-2020,17:00,12.924,R,ugm-3 (Ref.eq),2.73694,R,ugm-3,34.62965,R,ugm-3,38.82624,R,ugm-3
10-01-2020,18:00,19.433,R,ugm-3 (Ref.eq),4.64241,R,ugm-3,55.31348,R,ugm-3,62.43174,R,ugm-3
10-01-2020,19:00,17.599,R,ugm-3 (Ref.eq),2.70230,R,ugm-3,43.81522,R,ugm-3,47.95868,R,ugm-3
10-01-2020,20:00,15.366,R,ugm-3 (Ref.eq),1.97476,R,ugm-3,31.84627,R,ugm-3,34.87419,R,ugm-3
10-01-2020,21:00,17.599,R,ugm-3 (Ref.eq),1.83618,R,ugm-3,32.11216,R,ugm-3,34.92759,R,ugm-3
10-01-2020,22:00,15.366,R,ugm-3 (Ref.eq),1.97476,R,ugm-3,30.29749,R,ugm-3,33.32541,R,ugm-3
10-01-2020,23:00,15.566,R,ugm-3 (Ref.eq),1.66295,R,ugm-3,21.80336,R,ugm-3,24.35318,R,ugm-3
10-01-2020,24:00,17.599,R,ugm-3 (Ref.eq),1.10864,R,ugm-3,13.57426,R,ugm-3,15.27415,R,ugm-3
11-01-2020,01:00,21.058,R,ugm-3 (Ref.eq),1.47827,R,ugm-3,9.91197,R,ugm-3,12.17861,R,ugm-3
11-01-2020,02:00,18.824,R,ugm-3 (Ref.eq),1.15489,R,ugm-3,8.41364,R,ugm-3,10.18445,R,ugm-3
11-01-2020,03:00,22.482,R,ugm-3 (Ref.eq),1.10870,R,ugm-3,7.16690,R,ugm-3,8.86688,R,ugm-3
11-01-2020,04:00,29.199,R,ugm-3 (Ref.eq),0.90082,R,ugm-3,4.92173,R,ugm-3,6.30297,R,ugm-3
11-01-2020,05:00,27.166,R,ugm-3 (Ref.eq),0.93547,R,ugm-3,4.06738,R,ugm-3,5.50174,R,ugm-3
11-01-2020,06:00,26.149,R,ugm-3 (Ref.eq),1.17799,R,ugm-3,3.58868,R,ugm-3,5.39491,R,ugm-3
11-01-2020,07:00,29.199,R,ugm-3 (Ref.eq),1.14335,R,ugm-3,4.71011,R,ugm-3,6.46321,R,ugm-3
11-01-2020,08:00,28.999,R,ugm-3 (Ref.eq),0.97011,R,ugm-3,6.15086,R,ugm-3,7.63834,R,ugm-3
11-01-2020,09:00,28.382,R,ugm-3 (Ref.eq),0.90082,R,ugm-3,8.28687,R,ugm-3,9.66811,R,ugm-3
11-01-2020,10:00,17.199,R,ugm-3 (Ref.eq),1.24729,R,ugm-3,8.12953,R,ugm-3,10.04201,R,ugm-3
11-01-2020,11:00,9.875,R,ugm-3 (Ref.eq),1.38587,R,ugm-3,7.22264,R,ugm-3,9.34762,R,ugm-3
11-01-2020,12:00,10.075,R,ugm-3 (Ref.eq),1.48981,R,ugm-3,6.63595,R,ugm-3,8.92030,R,ugm-3
11-01-2020,13:00,11.291,R,ugm-3 (Ref.eq),1.80164,R,ugm-3,7.97394,R,ugm-3,10.73641,R,ugm-3
11-01-2020,14:00,13.941,R,ugm-3 (Ref.eq),1.10870,R,ugm-3,7.75447,R,ugm-3,9.45445,R,ugm-3
11-01-2020,15:00,24.724,R,ugm-3 (Ref.eq),1.00476,R,ugm-3,8.55482,R,ugm-3,10.09543,R,ugm-3
11-01-2020,16:00,25.941,R,ugm-3 (Ref.eq),1.17799,R,ugm-3,8.02212,R,ugm-3,9.82835,R,ugm-3
11-01-2020,17:00,27.774,R,ugm-3 (Ref.eq),0.93547,R,ugm-3,7.00520,R,ugm-3,8.43956,R,ugm-3
11-01-2020,18:00,28.999,R,ugm-3 (Ref.eq),0.93547,R,ugm-3,7.00520,R,ugm-3,8.43956,R,ugm-3
11-01-2020,19:00,21.266,R,ugm-3 (Ref.eq),0.62364,R,ugm-3,7.10942,R,ugm-3,8.06566,R,ugm-3
11-01-2020,20:00,24.516,R,ugm-3 (Ref.eq),0.55435,R,ugm-3,5.98712,R,ugm-3,6.83712,R,ugm-3
11-01-2020,21:00,38.965,R,ugm-3 (Ref.eq),0.97011,R,ugm-3,5.02914,R,ugm-3,6.51662,R,ugm-3
11-01-2020,22:00,31.640,R,ugm-3 (Ref.eq),1.31658,R,ugm-3,4.23082,R,ugm-3,6.24955,R,ugm-3
11-01-2020,23:00,30.015,R,ugm-3 (Ref.eq),0.79688,R,ugm-3,3.37183,R,ugm-3,4.59369,R,ugm-3
11-01-2020,24:00,25.332,R,ugm-3 (Ref.eq),0.65829,R,ugm-3,3.37066,R,ugm-3,4.38003,R,ugm-3
12-01-2020,01:00,19.841,R,ugm-3 (Ref.eq),0.13860,R,ugm-3,2.92169,R,ugm-3,3.13420,R,ugm-3
12-01-2020,02:00,11.908,R,ugm-3 (Ref.eq),0.83157,R,ugm-3,3.31939,R,ugm-3,4.59445,R,ugm-3
12-01-2020,03:00,9.466,R,ugm-3 (Ref.eq),0.55438,R,ugm-3,2.40881,R,ugm-3,3.25885,R,ugm-3
12-01-2020,04:00,4.991,R,ugm-3 (Ref.eq),0.38114,R,ugm-3,2.19364,R,ugm-3,2.77804,R,ugm-3
12-01-2020,05:00,6.816,R,ugm-3 (Ref.eq),0.34649,R,ugm-3,1.76595,R,ugm-3,2.29722,R,ugm-3
12-01-2020,06:00,10.683,R,ugm-3 (Ref.eq),0.69298,R,ugm-3,2.41000,R,ugm-3,3.47255,R,ugm-3
12-01-2020,07:00,9.058,R,ugm-3 (Ref.eq),0.72763,R,ugm-3,2.78426,R,ugm-3,3.89994,R,ugm-3
12-01-2020,08:00,4.783,R,ugm-3 (Ref.eq),0.65833,R,ugm-3,3.31791,R,ugm-3,4.32733,R,ugm-3
12-01-2020,09:00,4.991,R,ugm-3 (Ref.eq),5.16267,R,ugm-3,11.95767,R,ugm-3,19.87366,R,ugm-3